GFSFLT2_con_sbcape_087.txt.gz
CAPE
0 0 0 0 0 0 0 0 0 3 0 0 0 0 0 0 0 1 19 80 33 37 27 32 71 146 394 322 163 101 56 136
0 0 0 0 0 0 0 0 0 22 2 0 12 0 1 2 1 3 1 1 8 28 141 39 38 197 190 520 314 200 150 123
0 0 0 0 0 0 0 0 0 70 7 0 0 0 0 1 0 2 3 3 3 3 78 140 117 200 130 98 226 114 342 282
0 0 0 0 0 0 0 0 0 0 0 0 0 0 0 0 0 1 2 3 3 2 3 15 69 162 147 32 2 0 2 36
0 0 0 0 0 0 0 0 0 0 0 0 0 0 0 0 0 0 1 0 3 3 3 2 5 72 53 21 2 0 11 5
0 0 0 0 0 0 0 0 0 0 0 4 0 0 0 0 0 0 0 0 1 1 2 1 1 1 12 31 9 2 29 16
0 0 0 0 0 0 0 0 0 0 0 0 0 0 0 0 0 0 0 0 0 0 0 0 0 1 1 2 1 1 1 2
0 0 0 0 0 0 0 0 0 0 0 0 0 0 0 0 0 0 0 0 0 0 0 0 0 0 1 0 0 0 0 2
0 0 4 0 0 0 0 0 0 0 0 0 0 0 0 0 0 0 0 0 0 0 0 0 0 0 0 0 0 0 0 0
0 0 0 0 0 0 0 0 0 0 0 0 0 0 0 0 0 0 0 0 0 0 0 0 0 0 0 0 0 0 0 0
0 0 0 0 0 0 0 0 0 0 0 0 0 0 0 0 0 0 0 0 0 0 0 0 0 0 0 0 0 0 0 0
0 0 0 0 0 0 0 0 0 0 0 0 0 0 0 0 0 0 0 0 0 0 0 0 0 0 0 0 0 0 0 0
0 0 0 0 0 0 0 0 0 0 0 0 0 0 0 0 0 0 0 0 0 0 0 0 0 0 0 0 0 0 0 0
0 0 0 0 0 0 0 0 0 0 0 0 0 0 0 0 0 0 0 0 0 0 0 0 0 0 0 0 0 0 0 0
0 0 0 0 0 0 0 0 0 0 0 0 0 0 0 0 0 0 0 0 0 0 0 0 0 0 0 0 0 0 0 0
0 0 0 0 0 0 0 0 0 0 0 0 0 0 0 0 0 0 0 0 0 0 0 0 0 0 0 0 0 0 0 0
0 0 0 0 0 0 0 0 0 0 0 0 0 0 0 0 0 0 0 0 0 0 0 0 0 0 0 0 0 0 0 0
0 0 0 0 0 0 0 0 0 0 0 0 0 0 0 0 0 0 0 0 0 0 0 0 0 0 0 0 0 0 0 0
0 0 0 0 0 0 0 0 0 0 0 0 0 0 0 0 0 0 0 0 0 0 0 0 0 0 0 0 0 0 0 0

GFSFLT2_con_sbcape_093.txt.gz
CAPE
0 0 0 0 0 0 0 0 0 55 107 98 118 188 308 327 281 463 316 53 165 477 469 326 50 306 577 631 774 591 542 659
0 0 0 0 0 0 0 6 6 101 120 217 286 168 125 211 131 203 278 111 131 291 423 419 130 43 279 219 612 832 549 677
0 0 0 0 0 0 0 0 3 14 43 177 356 283 90 31 47 17 26 49 50 189 215 240 116 30 268 434 691 510 165 374
0 0 0 0 0 0 0 0 22 29 27 0 36 222 105 40 54 25 4 3 6 35 193 312 225 202 271 630 751 712 524 234
0 0 0 0 0 0 0 8 57 0 16 0 1 5 1 2 4 3 4 4 4 6 62 384 383 349 182 167 271 98 17 4
10 0 0 0 0 0 0 0 32 10 44 6 3 2 0 0 2 3 2 4 4 4 5 29 332 453 500 311 199 99 43 17
0 0 0 0 21 38 0 0 0 1 21 86 60 14 0 1 0 0 0 2 3 3 3 3 3 11 48 88 78 37 40 35
0 0 0 0 3 156 78 32 23 23 34 0 29 0 0 1 0 0 0 0 0 1 4 3 3 3 1 2 2 101 117 93
6 0 21 21 0 0 0 27 40 39 27 0 0 0 0 0 0 0 0 0 0 0 0 1 3 2 2 2 2 2 4 4
0 28 23 0 0 0 0 3 3 0 0 2 0 0 0 0 0 0 0 0 0 1 2 0 0 0 0 0 0 0 0 0
5 1 0 0 0 0 0 0 5 1 0 0 0 0 0 0 0 0 0 0 0 0 0 0 0 0 0 0 0 0 0 0
0 0 0 0 0 0 0 0 11 2 9 0 0 161 61 0 0 0 0 0 0 0 0 0 0 0 0 0 0 0 0 0
0 0 0 0 0 0 0 0 0 2 10 0 31 39 0 0 0 0 0 0 0 0 0 0 0 0 0 0 0 0 0 0
0 0 0 0 0 0 0 0 0 8 0 0 0 0 0 0 0 0 0 0 0 0 0 0 0 0 0 0 0 0 0 0
0 0 0 0 0 0 0 0 0 0 21 0 0 0 0 0 0 0 0 0 0 0 0 0 0 0 0 0 0 0 0 0
1 0 0 0 0 0 0 0 0 0 0 0 0 0 0 0 0 0 0 0 0 0 0 0 0 0 0 0 0 0 0 0
0 0 0 0 0 0 0 0 0 0 0 0 0 0 0 0 0 0 0 0 0 0 0 0 0 0 0 0 0 0 0 0
9 0 2 0 0 0 0 0 0 0 0 0 0 0 0 0 0 0 0 0 0 0 0 0 0 0 0 0 0 0 0 0
0 0 0 0 0 0 0 0 0 0 0 0 0 0 0 0 0 0 0 0 0 0 0 0 0 0 0 0 0 0 0 0

GFSFLT2_con_sbcape_096.txt.gz
CAPE
0 0 0 0 0 0 31 34 83 68 47 317 327 489 729 855 685 771 1059 741 488 710 900 1027 793 778 507 501 945 1487 1338 1439
0 0 0 0 0 45 3 93 67 119 102 44 573 647 619 935 907 822 1024 1069 731 739 893 632 336 296 279 797 953 1117 1063 1207
0 0 0 0 0 0 37 47 82 87 124 625 712 884 740 611 515 762 1048 1007 785 899 1079 1012 438 175 176 266 377 1085 1069 1198
0 0 0 0 0 0 0 43 38 85 325 480 791 923 778 375 366 302 364 317 435 802 869 820 847 321 129 173 200 411 1188 1079
18 0 0 0 0 0 4 12 68 87 154 599 738 830 663 616 486 238 168 130 189 372 570 810 501 234 211 358 665 796 453 568
83 5 11 0 0 0 0 7 24 74 288 728 763 703 444 390 183 66 105 53 21 39 339 473 655 809 712 551 477 405 158 80
55 14 3 5 0 0 0 3 46 79 81 527 881 862 605 217 178 104 176 207 33 4 5 6 261 1034 1005 758 653 735 312 121
76 44 23 100 120 37 6 0 18 47 74 157 804 828 654 383 27 164 162 126 24 4 5 5 3 25 433 711 521 750 325 246
106 43 104 90 58 62 83 99 138 57 406 361 539 490 499 452 180 185 165 104 7 5 4 5 4 3 3 3 2 2 6 8
113 90 90 83 11 22 55 60 90 158 197 313 405 425 438 441 418 143 61 0 3 3 5 4 2 0 1 1 0 0 0 0
164 170 94 10 0 0 5 57 55 197 243 378 429 247 123 101 186 148 102 45 0 2 1 1 1 3 0 0 0 0 0 0
5 121 127 37 0 0 0 49 45 163 252 247 235 604 431 44 41 19 6 6 11 1 0 0 0 0 0 0 0 0 0 0
87 23 10 0 0 0 38 63 15 182 283 252 358 70 95 25 3 0 1 3 2 1 0 0 0 0 0 0 0 0 0 0
22 25 1 0 0 6 18 0 13 149 263 237 85 21 44 14 1 0 0 1 0 0 0 0 0 0 0 0 0 0 0 0
2 58 43 26 1 0 0 0 0 69 155 204 88 53 32 12 0 0 0 0 0 0 0 0 0 0 0 0 0 0 0 0
21 13 13 24 0 0 0 0 0 5 146 176 129 67 42 24 2 1 1 0 0 0 0 0 0 0 0 0 0 0 0 0
11 1 54 42 23 0 0 0 0 1 75 158 173 119 92 62 24 0 0 0 0 0 0 0 0 0 0 0 0 0 0 0
0 0 0 0 0 10 0 0 0 0 3 52 131 159 133 122 77 20 0 0 0 0 0 0 0 0 0 0 0 0 0 0
0 0 0 12 0 0 0 0 0 0 2 25 12 55 149 226 130 13 0 0 0 0 0 0 0 0 0 0 0 0 0 0

GFSFLT2_con_sbcape_102.txt.gz
CAPE
0 0 0 58 10 27 17 13 121 122 148 246 9 1 7 59 117 42 30 51 195 111 272 73 12 827 1180 2069 2018 2402 2043 2557
0 0 0 5 23 7 114 54 79 104 65 144 131 104 110 141 108 0 12 82 91 96 13 0 0 195 1212 2327 2014 2067 1515 2071
10 0 0 0 0 0 20 198 27 137 179 286 435 254 333 501 484 314 742 436 166 105 536 0 0 1032 1435 1667 1754 2024 1489 1058
12 1 0 0 1 2 23 33 31 37 224 185 204 599 611 1103 865 1584 936 545 86 94 25 834 867 1521 1051 743 847 1117 1006 1341
17 9 0 0 0 0 0 0 53 53 321 249 9 1181 1565 1769 1842 1523 2145 1424 908 1023 1447 1831 1572 1215 1109 656 577 236 750 672
34 68 38 1 0 0 0 1 0 0 457 908 1018 1479 1069 1268 1461 1128 1294 1356 1611 1550 1661 1435 1669 1283 837 700 408 340 224 318
22 0 17 6 0 0 1 0 29 141 610 479 702 1213 1047 736 726 741 624 511 927 545 668 1347 1645 1496 1406 1081 797 349 389 447
53 14 21 15 12 0 0 1 22 102 740 354 209 304 746 582 440 519 497 463 290 212 355 171 599 1376 1201 1019 736 931 925 677
300 231 125 49 122 94 11 0 14 818 671 125 0 56 1131 798 691 719 469 343 261 121 47 5 5 165 266 1389 1365 1355 1392 1235
177 57 112 67 39 38 173 61 868 730 318 318 478 1196 1153 1037 832 587 410 239 147 21 4 3 3 4 1 1 157 199 163 558
86 4 1 137 52 30 224 284 245 347 361 660 894 1099 1104 1006 875 527 378 306 102 7 3 3 1 1 1 1 2 1 1 0
140 146 91 51 0 0 23 43 106 39 455 606 685 782 1050 680 558 451 56 0 0 2 2 0 0 0 0 2 0 0 0 0
0 24 12 8 6 18 6 90 59 285 511 854 1074 1042 799 473 360 310 215 3 1 0 0 0 0 0 0 0 0 0 0 0
485 186 160 23 18 48 468 117 292 499 688 672 578 938 748 403 274 177 29 0 2 0 0 0 0 0 0 0 0 0 0 0
421 547 446 296 655 456 301 214 164 296 277 511 405 561 617 370 320 81 23 8 6 0 0 0 0 0 0 0 0 0 0 0
261 568 158 17 63 53 34 11 9 64 134 194 332 379 519 458 279 211 68 6 1 0 0 0 0 0 0 0 0 0 0 0
107 238 82 18 0 6 1 0 0 0 31 167 261 371 517 573 582 304 193 95 24 17 0 0 0 0 0 0 0 0 0 0
62 432 805 97 103 31 1 0 0 0 0 64 152 239 410 686 552 276 259 179 195 151 46 4 6 0 0 0 0 0 0 0
121 129 145 88 133 94 16 1 4 0 6 0 57 123 153 726 686 290 393 369 372 306 231 56 11 0 0 0 0 0 0 0

GFSFLT2_con_sbcape_105.txt.gz
CAPE
0 0 0 10 51 52 34 0 2 55 37 32 142 87 22 5 28 31 28 73 91 126 83 343 155 842 1259 1255 1221 1349 928 1160
3 0 0 0 10 0 53 9 2 100 69 147 19 55 27 0 6 41 27 62 86 177 149 194 15 159 687 1364 1427 1362 1092 1320
11 4 0 0 0 2 38 0 34 67 72 64 71 50 85 53 19 1 0 9 56 129 103 62 35 53 224 232 1159 1310 1251 971
0 13 0 0 0 0 0 0 4 1 370 495 340 163 59 73 74 26 7 19 106 99 44 18 1 33 35 78 518 973 1013 425
0 2 4 0 0 0 0 0 0 7 210 166 285 221 106 521 105 72 0 27 73 112 49 50 14 25 310 372 686 667 436 476
0 0 0 9 0 0 0 0 0 0 368 189 41 0 848 721 653 592 110 103 73 74 100 30 115 579 568 410 199 155 149 142
13 42 0 0 1 11 0 0 0 486 496 233 238 620 428 370 407 339 486 534 290 160 350 123 297 422 291 361 222 185 113 159
115 85 103 57 76 89 33 0 786 884 442 211 286 134 316 198 250 309 249 175 177 136 85 1 172 461 626 628 376 316 356 296
178 12 97 193 3 78 165 104 279 649 481 13 0 0 39 257 243 424 277 49 58 18 1 2 1 2 46 522 602 563 575 574
94 144 237 33 0 3 96 107 26 188 31 0 0 0 0 386 474 365 200 149 0 1 2 3 1 0 0 82 314 331 588 471
61 32 64 102 27 0 4 0 31 33 393 396 320 683 561 448 229 235 212 17 0 0 2 1 3 1 1 0 0 0 0 1
3 28 24 27 19 0 0 56 1 101 139 498 583 382 459 134 147 7 0 0 0 0 0 0 0 0 0 0 0 0 0 0
126 100 23 29 2 0 102 111 3 58 0 2 0 156 236 99 19 0 0 0 0 0 0 0 0 0 0 0 0 0 0 0
0 0 6 35 4 0 76 88 101 486 191 387 171 325 363 173 191 6 0 0 0 0 0 0 0 0 0 0 0 0 0 0
36 0 0 26 198 274 135 3 3 14 398 245 420 397 354 253 86 26 0 0 0 0 0 0 0 0 0 0 0 0 0 0
233 148 236 273 15 26 4 0 0 0 2 286 446 440 293 163 90 38 2 0 0 0 0 0 0 0 0 0 0 0 0 0
438 272 68 49 18 0 0 0 0 0 0 5 283 545 433 285 101 28 1 0 0 0 0 0 0 0 0 0 0 0 0 0
212 331 126 48 31 12 0 0 0 0 0 0 11 531 312 93 25 18 18 5 3 0 0 0 0 0 0 0 0 0 0 0
383 168 74 122 137 8 0 0 0 0 0 0 0 297 342 229 158 69 35 22 30 6 0 0 0 0 0 0 0 0 0 0

GFSFLT2_con_sbcape_108.txt.gz
CAPE
0 338 343 232 89 10 7 2 21 55 33 6 0 44 23 14 14 50 101 127 111 18 73 86 170 426 445 338 354 382 365 286
0 2 198 245 79 45 0 35 31 1 1 0 0 1 10 15 7 60 51 92 137 99 217 186 76 20 500 523 593 532 560 462
0 0 0 0 0 0 0 0 53 41 42 0 0 0 70 9 8 35 27 33 166 182 299 266 252 269 63 155 787 836 486 674
0 0 0 0 0 0 0 0 4 19 30 65 17 0 24 23 3 7 20 56 178 122 41 90 73 47 118 34 264 804 498 627
0 0 0 0 0 0 0 0 0 2 41 62 70 7 1 0 34 38 27 93 145 96 6 27 11 38 50 23 6 502 402 475
0 0 0 0 0 0 0 0 0 0 23 95 3 343 355 212 164 191 48 100 128 107 53 24 73 38 36 161 285 274 216 363
0 26 77 59 15 14 3 0 0 0 28 6 94 634 471 486 555 459 33 81 129 96 71 60 82 421 170 331 223 127 124 97
89 18 38 44 0 71 65 10 665 424 284 157 456 350 380 452 628 567 145 154 156 99 119 89 154 102 258 179 146 95 89 46
76 0 25 26 0 29 66 27 24 351 211 40 241 387 181 359 523 509 455 326 138 82 117 81 57 176 15 166 142 124 127 229
1 0 99 2 0 0 27 1 92 275 145 0 0 0 179 312 354 192 96 24 2 1 2 2 1 1 19 23 139 177 222 279
0 2 6 25 3 0 0 0 40 315 312 311 289 344 209 169 130 72 0 0 3 2 3 3 6 4 1 1 1 49 166 266
0 1 14 0 0 0 0 0 1 59 8 139 444 274 189 2 0 0 0 0 0 2 2 3 1 1 1 0 0 0 0 0
0 0 0 0 0 0 14 0 59 4 0 117 81 114 54 3 1 0 0 0 0 0 0 0 2 0 0 1 0 0 0 0
0 0 0 0 4 0 0 42 74 16 13 0 0 0 55 4 0 0 0 0 0 0 0 0 0 0 0 0 0 0 0 0
45 17 0 0 34 6 2 644 235 192 423 6 0 17 87 22 0 0 0 0 0 0 0 0 0 0 0 0 0 0 0 0
6 58 55 74 0 0 0 0 0 7 243 540 335 191 104 55 13 0 0 0 0 0 0 0 0 0 0 0 0 0 0 0
15 22 91 2 0 0 0 0 0 0 6 295 373 246 110 79 86 9 0 0 0 0 0 0 0 0 0 0 0 0 0 0
55 10 0 0 0 0 0 0 0 0 0 4 332 223 147 72 23 0 0 0 0 0 0 0 0 0 0 0 0 0 0 0
205 8 0 0 0 0 0 0 0 0 0 9 106 175 118 42 4 5 0 0 0 0 0 0 0 0 0 0 0 0 0 0

GFSFLT2_con_sbcape_111.txt.gz
CAPE
750 741 550 429 125 0 15 0 2 15 55 8 0 0 1 19 5 13 23 52 56 61 60 61 42 145 185 74 0 162 122 87
0 519 441 263 101 123 16 57 32 0 29 3 5 32 87 34 5 2 2 94 55 28 108 102 138 132 154 131 25 155 236 62
0 1 167 24 20 0 2 0 40 11 17 15 0 1 112 48 8 2 57 62 86 17 165 162 221 238 309 244 216 295 330 217
0 0 0 0 0 0 1 0 0 0 2 54 0 0 40 52 0 0 28 75 104 160 233 237 251 249 253 177 486 499 310 397
10 9 9 0 0 0 0 0 0 0 0 31 9 0 16 25 4 13 11 67 117 143 162 200 197 98 108 81 67 156 222 207
0 0 0 28 13 0 0 0 0 0 0 16 54 152 0 10 3 5 64 64 61 105 42 41 26 11 18 22 29 123 246 402
0 38 38 55 93 52 1 0 0 0 0 1 206 404 183 107 75 33 39 83 103 110 66 31 18 0 6 76 131 167 284 112
45 27 29 2 11 49 10 20 3 134 253 398 554 645 612 484 296 41 46 41 65 106 96 49 59 140 78 145 178 142 127 184
89 0 0 0 0 2 6 77 48 117 29 25 52 232 186 427 364 265 96 169 129 127 117 85 73 128 213 132 75 56 59 44
0 0 0 0 0 0 0 0 174 283 45 12 187 229 179 198 168 82 8 6 4 1 1 1 1 17 9 71 131 70 64 47
0 0 0 23 0 0 0 0 66 270 150 412 398 283 77 22 2 2 3 3 4 3 1 1 4 2 7 1 45 100 115 166
0 0 3 0 0 0 0 0 66 196 430 504 171 189 160 3 1 1 1 0 2 3 2 2 5 1 1 2 9 43 37 77
0 0 0 0 0 0 15 0 81 136 336 287 244 118 19 0 0 0 0 0 0 0 2 5 8 0 1 1 2 8 10 5
0 0 0 0 0 0 0 145 82 43 152 62 156 103 1 0 0 0 0 0 0 0 0 0 0 0 0 2 8 8 12 10
0 0 0 0 0 0 24 204 148 179 3 0 8 122 22 1 0 0 0 0 0 0 0 0 0 0 0 0 0 0 0 0
0 0 0 0 0 0 25 64 41 218 1 0 79 162 18 0 0 0 0 0 0 0 0 0 0 0 0 0 0 0 0 0
0 2 3 1 0 0 0 0 24 249 347 450 312 141 1 0 0 0 0 0 0 0 0 0 0 0 0 0 0 0 0 0
9 0 0 0 0 0 0 0 2 11 23 352 391 158 33 2 0 0 0 0 0 0 0 0 0 0 0 0 0 0 0 0
30 0 0 0 0 0 0 0 0 11 89 208 116 80 19 0 0 0 0 0 0 0 0 0 0 0 0 0 0 0 0 0

GFSFLT2_con_sbcape_114.txt.gz
CAPE
556 646 502 415 243 4 44 0 6 38 8 0 0 0 0 24 29 19 31 0 0 9 30 63 107 129 137 83 26 88 89 52
1 644 601 448 228 167 25 51 47 4 4 0 0 0 1 18 24 18 26 0 7 23 23 32 94 143 137 116 38 38 97 44
0 93 547 9 228 0 1 0 15 7 0 0 0 0 24 23 32 18 5 33 10 6 21 16 63 94 150 130 73 74 145 79
0 0 0 1 108 3 0 0 0 0 0 32 4 0 35 32 40 25 29 9 27 17 65 34 132 118 124 153 148 164 210 181
6 0 6 0 11 0 0 0 0 0 0 137 27 17 60 53 23 26 18 21 26 64 72 117 166 229 233 210 219 276 241 266
0 0 0 98 113 51 0 0 0 0 0 89 147 81 92 81 58 32 11 45 93 136 144 114 104 197 190 149 197 223 240 200
0 27 52 13 32 113 1 0 0 7 96 267 319 412 69 27 32 46 38 82 80 119 121 74 45 56 56 48 68 155 204 270
63 11 54 0 0 67 83 246 25 39 305 477 418 624 511 205 61 95 88 103 90 67 82 57 116 88 39 85 74 144 187 79
0 0 5 0 0 4 18 123 82 211 77 201 236 257 296 446 225 101 200 135 109 82 96 65 69 63 33 93 122 95 71 77
0 0 6 0 0 0 1 2 150 421 269 424 274 192 175 189 209 198 134 67 9 9 7 2 2 119 90 72 65 19 15 41
0 0 0 102 55 0 0 7 57 300 336 628 423 141 84 23 3 7 4 3 4 3 2 1 1 2 17 66 74 55 11 18
0 0 0 0 0 0 0 7 53 292 499 733 139 152 325 4 3 2 1 1 2 3 5 1 4 2 14 29 66 54 21 22
0 0 0 0 0 1 3 0 160 514 582 330 215 160 140 2 1 1 0 0 0 0 1 2 2 2 2 1 1 2 2 1
0 0 0 0 0 29 2 100 196 215 230 156 149 27 2 0 0 0 0 0 0 0 0 1 3 0 0 1 1 2 4 1
0 0 0 0 0 0 1 177 79 200 0 211 80 25 0 0 0 0 0 0 0 0 0 0 0 0 1 2 0 0 0 2
0 0 0 0 0 0 224 198 109 46 0 2 131 8 0 0 0 0 0 0 0 0 0 0 0 0 0 0 0 0 0 0
0 0 0 0 0 0 2 90 286 28 11 92 84 0 0 0 0 0 0 0 0 0 0 0 0 0 0 0 0 0 0 0
0 0 0 0 0 0 109 239 319 275 483 309 72 6 0 0 0 0 0 0 0 0 0 0 0 0 0 0 0 0 0 0
0 0 0 0 0 0 8 41 121 266 365 384 121 34 5 0 0 0 0 0 0 0 0 0 0 0 0 0 0 0 0 0

GFSFLT2_con_sbcape_117.txt.gz
CAPE
458 553 575 607 455 129 354 274 305 377 259 140 93 15 9 0 12 82 3 0 18 134 98 310 262 330 302 314 464 804 812 1025
5 613 524 712 423 440 492 141 100 284 285 281 220 106 20 33 60 81 53 9 35 117 124 216 302 413 431 441 507 605 813 960
0 154 267 497 530 396 418 447 194 158 81 176 199 186 142 52 81 66 75 17 35 47 56 150 315 386 572 673 701 622 773 905
7 0 0 291 446 435 423 171 410 352 40 382 143 139 244 227 141 86 82 16 39 46 40 124 252 370 507 686 717 741 752 1038
39 36 47 116 355 89 0 8 319 157 1 317 309 141 271 327 296 201 146 99 110 66 49 123 277 362 518 655 775 798 816 1000
23 92 100 426 396 507 26 25 134 47 16 32 509 592 295 311 266 211 172 202 327 180 40 79 493 548 512 663 427 876 886 989
20 181 228 201 286 572 318 392 0 12 374 701 713 729 668 349 291 270 242 253 320 457 366 158 157 538 845 430 411 853 965 1074
271 263 131 258 74 495 714 756 735 577 682 633 652 924 684 420 360 344 363 330 350 351 247 143 133 244 276 601 374 511 1057 1217
218 202 125 85 72 52 530 673 713 782 745 514 622 708 708 565 454 473 378 386 394 299 122 72 22 74 104 193 274 365 613 659
352 277 65 57 116 194 280 350 687 847 643 632 457 324 252 473 365 316 185 179 240 273 103 106 165 166 71 90 140 123 64 93
336 273 66 217 164 110 101 189 462 840 766 658 409 211 216 89 70 43 21 8 5 5 5 15 78 442 308 297 228 222 97 178
114 126 38 156 98 47 23 217 328 1023 837 947 726 443 271 20 25 6 5 6 4 4 4 3 2 1 124 191 238 194 63 47
198 210 33 3 12 52 195 222 601 1095 824 1156 834 678 150 6 6 2 4 3 2 2 2 4 5 3 2 5 2 4 1 2
5 165 16 0 2 242 103 384 808 1123 772 594 108 78 46 4 6 4 3 1 1 2 3 3 3 1 2 3 3 3 3 2
174 134 0 0 11 15 38 752 716 954 608 185 209 119 51 13 29 15 2 1 0 0 0 0 0 1 0 1 2 4 6 6
52 84 54 36 42 15 420 613 815 852 667 449 243 133 136 60 39 2 1 0 0 0 0 0 0 0 0 0 0 0 0 1
107 75 187 138 131 106 417 747 550 562 602 509 285 156 75 75 50 2 0 0 0 0 0 0 0 0 0 0 0 0 0 0
4 450 535 487 67 348 978 1080 676 503 543 557 353 129 16 1 0 0 0 0 0 0 0 0 0 0 0 0 0 0 0 0
155 119 53 186 186 101 697 956 760 675 709 835 484 205 85 6 0 0 0 0 0 0 0 0 0 0 0 0 0 0 0 0

GFSFLT2_con_sbcape_123.txt.gz
CAPE
0 0 0 12 7 4 45 43 53 212 172 168 30 39 161 160 252 98 213 277 232 219 244 867 871 867 1081 1171 1308 1176 1320 1537
0 0 0 3 96 41 31 49 89 104 97 291 122 1 54 220 299 341 302 567 416 221 258 452 673 1054 973 1143 1270 1139 973 1121
2 3 22 48 23 20 63 130 83 191 374 35 66 99 439 267 227 179 107 137 305 137 334 562 812 926 1182 1196 1274 1164 1008 1739
30 5 22 80 55 96 114 191 21 52 179 143 266 12 515 357 203 309 249 231 417 446 368 644 1038 1013 1160 1395 1188 1120 1410 2235
9 4 50 12 2 19 78 123 244 324 340 262 600 110 258 585 901 413 413 358 328 463 703 873 1295 1373 1097 1319 1503 1092 1604 1087
0 0 3 5 27 47 61 150 99 164 202 121 62 672 325 424 805 527 636 498 287 269 323 1378 1338 1970 1862 1559 1444 1467 1267 1179
0 0 0 0 31 1 7 192 130 69 80 260 0 487 973 810 864 818 517 451 297 240 110 456 971 1294 1306 2019 2119 1740 1651 1540
0 2 0 2 13 6 17 75 98 193 117 945 1449 1534 1574 1089 947 849 812 722 677 613 357 182 573 888 920 877 1954 2074 1907 1865
90 56 40 57 37 40 105 64 113 162 384 949 1380 1467 1082 1211 1263 794 859 745 654 1080 245 277 203 647 1018 1041 1122 1620 1705 1633
29 39 80 79 1 29 70 68 7 20 278 1315 1484 902 451 328 582 446 420 717 207 587 866 372 193 245 379 346 427 894 1434 1364
135 194 156 79 108 146 415 215 69 99 132 1698 1481 827 185 72 48 8 12 19 5 90 542 248 172 163 85 94 146 241 723 840
59 110 56 167 0 8 41 442 427 354 286 835 1521 1408 434 16 132 43 3 10 7 4 76 283 332 248 83 26 61 26 73 185
115 116 231 275 336 392 382 640 801 632 474 1713 1547 1080 417 187 63 9 4 6 5 4 9 6 28 315 336 234 166 134 142 53
230 237 296 346 353 217 905 764 586 1813 1883 1615 1246 941 490 322 206 78 5 7 5 6 7 6 4 3 3 9 22 48 20 54
267 302 600 571 325 642 646 974 1340 1932 1774 1554 1145 993 736 466 313 102 1 1 2 1 0 2 5 3 1 3 2 3 5 4
266 440 366 460 566 455 851 1450 1934 1918 1628 1251 1242 967 727 541 356 151 8 2 0 0 0 0 0 1 4 3 7 1 2 4
81 26 311 591 842 1166 1471 1509 1600 1701 1267 1153 1010 842 721 541 276 88 84 5 1 0 0 0 0 0 0 0 0 0 0 0
106 112 957 878 1162 1413 1539 1351 1222 1230 1120 1033 934 748 588 249 52 66 55 2 0 0 0 0 0 0 0 0 0 0 0 0
205 95 711 718 1059 1411 1391 1312 1063 1168 936 730 388 211 74 4 0 0 0 0 0 0 0 0 0 0 0 0 0 0 0 0